User: anonymous   Login
Location: Lone Wolf Observatory
(41.0360°N, 89.2260°W)
Time: 12:06:43
(UTC-05:00)
Language:

Cosmos 1378 Rocket - Orbit

View from above orbital plane
View from above orbital plane
View from above satellite
View from above satellite

Ground track
Ground track

The orbit data is extracted from the following two-line orbital elements,

1 13272U 82059B   15116.47217852  .00000463  00000-0  52126-4 0  9992
2 13272 082.5101 154.5231 0018755 177.3741 182.7576 14.84337443775771
Epoch (UTC): 26 April 2015 11:19:56
Eccentricity: 0.0018755
inclination: 82.5101°
perigee height: 602 km
apogee height: 629 km
right ascension of ascending node: 154.5231°
argument of perigee: 177.3741°
revolutions per day: 14.84337443
mean anomaly at epoch: 182.7576°
orbit number at epoch: 77577

The dashed part of the orbit path shows where the satellite is in the earth's shadow,  

DLR